CAPE
42 26 1 33 41 1 10 10 12 16 10 1 0 0 0 3 0 0 0 0 0 126 711 915 1146 1251 1676 1283 1571 1527 1774 1776 1801 1795 1677 1674 1661 1502 1726 1614 1562 1759 1752 1459 1111 1379 1181 849 1014
33 8 20 44 27 11 7 0 18 90 126 1 0 14 22 4 0 2 0 0 20 428 884 811 1148 1334 1293 1528 1849 1713 1842 1816 1900 1413 1341 1546 1508 1656 1433 1713 1674 920 992 1548 1199 1051 988 1014 1063
13 22 73 15 20 26 8 13 21 261 153 0 2 20 1 1 1 0 0 32 242 631 1022 824 1251 1396 1224 1729 1741 1366 1831 1859 1707 1569 1763 1600 1706 1731 1768 1701 1689 915 1340 885 1284 1071 867 638 742
17 89 41 14 7 39 48 34 193 83 197 87 16 0 0 1 0 0 48 192 336 753 878 1089 1443 1253 1275 1786 1640 1418 1741 1752 1634 1324 1639 1727 1770 1634 1762 1731 1584 1613 1589 1423 1148 1212 972 1042 814
83 184 53 51 29 51 44 95 216 101 204 110 0 0 2 1 0 23 153 281 260 653 955 1031 1360 1325 1201 1756 1561 1333 1569 1582 1732 1554 1784 1687 1583 1607 1815 1916 1817 1712 1629 1380 1093 959 853 761 911
69 20 9 12 15 62 63 74 202 234 103 4 0 1 1 11 0 105 212 281 266 653 820 1087 1211 1686 1186 1426 1476 1387 1752 1560 1855 1774 1986 1974 1989 1874 1844 1770 1689 1627 1390 1173 903 505 624 753 704
46 0 0 13 19 101 17 9 1 244 109 11 0 0 1 9 3 120 246 197 263 806 663 1107 997 1651 1125 1209 1217 1492 1684 1731 1982 1871 2042 2017 1972 1953 1820 1771 1554 1389 1124 1068 668 612 536 642 704
4 0 0 20 23 59 56 32 203 344 199 0 0 0 1 8 26 77 255 273 570 750 672 906 925 1118 1189 1098 1169 1346 1607 1655 1840 1891 1942 1932 1894 1860 1617 1063 1472 1443 1005 786 600 485 427 656 845
0 0 0 3 6 89 46 152 134 178 52 0 0 0 0 7 4 96 82 267 550 691 677 985 829 892 1239 1053 1204 1442 1614 1615 1632 1605 1607 1294 1279 1268 1254 1302 1543 1153 788 1090 896 460 372 623 876
30 2 0 19 38 13 133 181 350 175 66 0 0 0 0 0 6 33 54 155 315 475 662 982 746 672 1056 1184 1257 1351 1521 1401 1312 949 453 416 491 785 852 1109 1463 1082 1137 352 996 866 798 443 513
143 7 4 19 3 43 58 321 313 170 110 4 0 0 0 0 2 20 61 146 202 359 689 823 707 537 831 1066 1073 1214 1274 1173 855 445 298 412 472 661 733 599 971 598 351 216 267 440 648 335 372
105 163 149 21 28 19 26 188 259 237 233 32 0 0 0 0 0 11 21 25 165 361 710 803 636 250 622 776 742 889 959 878 585 158 0 225 298 460 491 403 340 367 231 221 318 326 354 235 374
76 123 104 132 119 133 72 62 226 283 80 0 0 0 0 0 11 60 105 91 69 98 447 585 478 143 293 305 525 562 623 593 526 288 0 88 212 366 441 231 118 555 497 278 369 379 327 75 128
0 8 27 8 3 3 4 20 338 171 0 0 0 0 0 0 4 180 212 163 148 60 208 408 262 28 86 0 112 182 316 417 377 61 0 0 21 293 369 371 471 411 388 268 370 357 122 50 39
0 0 0 0 0 0 0 0 123 42 0 0 0 0 0 0 1 66 191 216 158 23 107 159 26 0 0 0 0 19 68 266 475 408 108 28 108 245 400 439 453 357 311 266 302 66 29 37 47
0 0 0 0 0 0 2 0 223 23 0 0 0 0 0 0 0 42 142 297 281 102 27 80 22 0 0 0 0 0 0 149 256 362 422 164 217 274 530 506 567 418 462 425 431 97 33 45 55
0 0 0 1 0 16 1 30 274 92 30 0 0 0 0 0 0 26 79 162 269 177 46 0 0 0 0 0 0 0 0 90 144 208 285 346 237 363 435 593 656 529 641 350 457 384 82 67 64
0 0 0 0 0 1 43 47 175 173 98 13 0 0 0 0 0 16 59 35 125 123 52 0 0 0 0 0 0 0 0 0 39 141 300 322 310 481 561 644 611 569 499 330 199 195 92 89 39
0 0 0 0 0 0 15 44 140 204 114 45 12 0 0 0 28 32 35 0 7 25 0 0 0 0 0 0 0 0 0 135 282 139 402 390 463 764 520 436 481 566 359 383 291 41 26 46 20
0 0 0 0 0 0 0 2 86 159 166 134 75 28 26 32 40 48 52 1 0 0 0 0 0 0 0 0 0 0 0 55 285 272 371 530 558 1029 772 420 395 457 503 311 156 56 29 6 5
0 0 0 0 0 0 0 0 0 147 168 155 123 30 19 41 55 60 47 66 0 0 0 0 0 0 0 0 0 0 0 10 72 191 312 446 567 909 1082 900 626 563 460 405 390 92 16 0 6
0 0 0 0 0 0 0 0 0 20 70 131 116 115 65 77 91 91 60 51 43 12 0 0 0 0 0 0 0 6 64 98 18 51 151 296 430 470 720 801 522 562 578 572 538 370 107 0 0
0 0 0 0 0 0 0 0 0 7 25 84 155 138 92 92 95 110 104 65 41 0 5 0 0 0 0 0 0 0 16 0 0 0 36 167 228 383 517 630 579 363 674 562 593 622 152 0 0
0 0 0 0 0 0 0 0 0 0 0 22 237 207 158 106 110 117 98 93 60 37 0 0 0 0 0 0 0 0 0 0 0 0 0 5 167 235 390 627 675 646 569 728 648 603 206 51 0
0 0 0 0 0 0 0 0 0 0 0 0 15 151 242 208 124 107 110 100 95 68 0 0 0 0 0 0 0 0 0 0 0 0 0 0 0 139 256 462 589 690 682 755 737 728 578 115 51
0 0 0 0 0 0 0 0 0 0 0 0 34 94 235 284 243 184 158 147 114 99 64 14 0 0 0 0 0 0 0 0 0 0 0 0 0 0 190 325 524 648 784 822 823 783 800 660 380
0 0 0 0 0 0 0 0 0 0 0 0 5 62 136 190 189 338 339 224 161 135 92 58 37 0 0 0 0 0 0 0 0 0 0 0 0 0 150 307 375 556 723 743 881 889 803 765 754
0 0 0 0 0 0 0 0 0 0 0 0 0 2 58 160 103 123 376 333 261 190 155 77 48 30 19 0 0 0 0 0 0 0 0 0 0 43 184 309 424 410 560 620 808 1055 993 839 958
0 0 0 0 0 0 0 0 0 0 0 0 0 0 6 123 129 134 282 340 286 252 235 129 66 52 33 26 32 43 40 16 13 7 12 13 0 0 171 279 283 293 292 462 673 946 1280 1097 912
0 0 0 0 0 0 0 0 0 0 0 0 0 0 0 41 107 120 121 181 321 237 268 280 130 66 76 89 93 98 101 92 79 69 60 67 17 5 56 349 348 326 322 457 607 646 1118 1328 1193
CIN
-53 -44 -34 -22 0 -1 -34 -42 -63 -41 -40 -11 0 0 -6 -43 0 0 0 0 0 -18 -2 -2 -1 0 0 0 0 0 0 0 0 0 0 0 0 -1 0 0 0 0 0 0 0 0 0 -3 0
-64 -76 -35 -39 -2 -2 -45 -47 -53 -14 -10 -16 -3 -67 -70 -34 0 0 0 0 -28 -12 -2 -4 -2 -1 0 0 0 0 0 0 0 -4 -3 -1 -2 0 0 0 -2 -13 -8 0 0 0 0 0 0
-75 -34 -2 -15 -25 -10 -23 -62 -52 -3 -16 0 -24 -77 -37 -46 -1 0 0 -48 -31 -5 -2 -3 -2 -1 0 0 0 -1 0 0 0 -1 0 0 -1 0 0 0 -1 -5 -2 -8 0 0 -6 -15 -10
-81 -3 -3 -4 -9 -3 -20 -59 -9 -34 -23 -21 -78 0 0 -1 0 0 -54 -14 -24 -2 -1 0 0 0 -1 0 0 0 0 0 -1 -2 0 0 0 0 0 0 0 0 0 0 0 0 -4 -4 -8
-11 -6 -10 -7 -2 -8 -37 -40 -30 -30 -36 -60 0 0 0 -1 0 -95 -25 -12 -47 -5 -1 -1 0 0 -1 0 0 0 0 0 -1 -3 -2 0 0 -1 0 0 0 0 0 -1 -2 -5 -8 -10 -11
-32 -78 -68 -48 -17 -22 -94 -90 -54 -34 -75 -90 0 0 0 -6 0 -51 -11 -18 -59 -20 -3 -2 0 0 0 0 0 0 0 0 0 -2 0 0 0 0 0 0 0 0 -5 -3 -8 -22 -19 -11 -20
-42 0 -75 -44 -39 -22 -103 -143 -32 -53 -76 -147 0 0 -1 0 -18 -64 -6 -44 -52 -4 -12 -3 -1 0 0 -2 -1 0 0 0 0 0 0 0 0 0 0 0 -1 -4 -8 -7 -17 -19 -24 -16 -16
-7 0 0 -49 -50 -71 -105 -128 -59 -48 -60 0 0 0 0 -11 -170 -147 -12 -18 -7 -4 -13 -7 -3 -2 -1 0 -3 0 0 0 0 0 0 0 0 0 -7 -13 -6 -5 -8 -14 -21 -24 -29 -22 -20
-13 0 -32 -57 -79 -31 -116 -121 -108 -88 -116 0 0 0 0 0 -223 -157 -111 -11 -2 -4 -14 -7 -12 -11 -5 -3 -3 0 0 0 0 -5 -14 -29 -33 -25 -24 -12 -9 -11 -11 -13 -22 -41 -40 -27 -23
-122 -101 0 -82 -84 -73 -108 -68 -68 -96 -117 0 0 0 0 0 -175 -255 -227 -103 -15 -13 -12 -5 -27 -38 -12 -4 -4 -1 -1 -4 -20 -55 -91 -99 -81 -51 -45 -35 -17 -23 -15 -46 -30 -34 -37 -52 -42
-64 -92 -112 -83 -110 -117 -75 -47 -82 -90 -107 -40 0 0 0 0 -31 -260 -217 -135 -109 -58 -13 -17 -37 -62 -39 -20 -19 -9 -13 -27 -54 -97 -115 -96 -83 -66 -58 -57 -51 -52 -65 -79 -83 -74 -54 -66 -59
-101 -84 -67 -142 -103 -112 -76 -76 -68 -89 -87 -48 0 0 0 0 0 -283 -221 -278 -121 -68 -24 -29 -51 -107 -58 -48 -56 -41 -44 -58 -79 -135 0 -119 -92 -77 -68 -64 -69 -67 -79 -89 -67 -74 -73 -81 -72
-153 -101 -102 -73 -79 -92 -101 -90 -64 -94 -197 0 0 0 0 0 -273 -230 -179 -174 -199 -152 -69 -64 -84 -133 -109 -107 -80 -76 -72 -78 -87 -123 -16 -162 -108 -75 -76 -74 -85 -65 -68 -78 -54 -50 -69 -76 -89
0 -150 -127 -143 -137 -75 -148 -148 -78 -173 0 0 0 0 0 0 -30 -150 -115 -131 -142 -174 -128 -99 -124 -165 -158 0 -132 -123 -103 -91 -100 -198 0 0 -112 -91 -68 -64 -62 -64 -74 -72 -61 -38 -75 -83 -78
0 0 0 0 0 0 0 -10 -106 -243 0 0 0 0 0 0 -31 -236 -180 -156 -155 -103 -162 -146 -127 0 0 0 0 -172 -133 -102 -83 -87 -173 -216 -154 -98 -71 -53 -50 -58 -66 -71 -65 -63 -72 -71 -64
0 0 0 0 0 0 -116 0 -147 -299 0 0 0 0 0 0 0 -211 -178 -147 -145 -163 -178 -173 -104 0 0 0 0 0 0 -115 -91 -84 -98 -149 -117 -110 -68 -46 -48 -65 -59 -52 -45 -47 -45 -50 -50
0 0 0 -47 0 -158 -45 -169 -158 -282 -336 0 0 0 0 0 0 -223 -190 -174 -159 -176 -207 0 0 0 0 0 0 0 0 -121 -103 -101 -89 -87 -90 -85 -71 -57 -43 -67 -51 -51 -31 -48 -46 -39 -54
0 0 0 0 0 -31 -148 -155 -160 -252 -252 -273 0 0 0 0 0 -130 -202 -193 -179 -180 -210 0 0 0 0 0 0 0 0 0 -120 -103 -79 -77 -77 -75 -68 -59 -48 -54 -51 -48 -55 -46 -89 -78 -72
0 0 0 0 0 0 -136 -104 -131 -229 -261 -272 -329 0 0 0 -296 -216 -191 -1 -39 -110 -1 0 0 0 0 0 0 0 0 -98 -85 -106 -76 -72 -63 -58 -80 -64 -65 -61 -57 -40 -59 -67 -61 -63 -118
0 0 0 0 0 0 0 -84 -104 -197 -232 -246 -298 -327 -367 -340 -321 -243 -197 -4 0 0 0 0 0 0 0 0 0 0 0 -93 -74 -73 -80 -70 -61 -49 -62 -71 -58 -54 -42 -48 -84 -39 -45 -80 -113
0 0 0 0 0 0 0 0 0 -196 -203 -203 -247 -273 -317 -342 -349 -314 -235 -231 0 0 0 0 0 0 0 0 0 0 0 -65 -120 -82 -66 -79 -68 -53 -48 -52 -58 -54 -53 -32 -39 -60 -38 0 -74
0 0 0 0 0 0 0 0 0 -177 -220 -247 -241 -278 -335 -364 -328 -306 -313 -253 -236 -122 0 0 0 0 0 0 0 -111 -175 -147 -97 -128 -74 -68 -75 -67 -55 -52 -59 -54 -61 -49 -40 -52 -48 0 0
0 0 0 0 0 0 0 0 0 -35 -175 -255 -286 -290 -321 -391 -363 -357 -358 -332 -262 0 -85 0 0 0 0 0 0 0 -157 0 0 0 -116 -77 -75 -73 -61 -58 -55 -72 -52 -57 -50 -42 -52 0 0
0 0 0 0 0 0 0 0 0 0 0 -216 -315 -302 -312 -361 -394 -350 -352 -313 -281 -253 0 0 0 0 0 0 0 0 0 0 0 0 0 -22 -94 -87 -80 -61 -54 -48 -58 -45 -49 -53 -75 -108 0
0 0 0 0 0 0 0 0 0 0 0 0 -240 -271 -289 -359 -368 -379 -358 -363 -322 -301 0 0 0 0 0 0 0 0 0 0 0 0 0 0 0 -140 -109 -90 -62 -53 -55 -48 -45 -54 -58 -107 -118
0 0 0 0 0 0 0 0 0 0 0 0 -229 -242 -279 -320 -367 -377 -339 -383 -382 -354 -346 -318 0 0 0 0 0 0 0 0 0 0 0 0 0 0 -120 -108 -85 -61 -49 -50 -50 -60 -56 -65 -95
0 0 0 0 0 0 0 0 0 0 0 0 -201 -256 -260 -286 -347 -348 -350 -366 -372 -386 -386 -395 -391 0 0 0 0 0 0 0 0 0 0 0 0 0 -149 -102 -90 -77 -63 -53 -45 -46 -57 -77 -87
0 0 0 0 0 0 0 0 0 0 0 0 0 -139 -267 -314 -359 -377 -329 -366 -393 -415 -388 -420 -385 -388 -416 0 0 0 -24 0 0 0 0 0 0 -187 -121 -104 -98 -99 -83 -77 -65 -45 -56 -86 -97
0 0 0 0 0 0 0 0 0 0 0 0 0 0 -172 -301 -329 -374 -389 -327 -413 -385 -385 -431 -431 -413 -424 -478 -458 -428 -397 -404 -383 -301 -321 -277 0 0 -143 -122 -127 -131 -127 -116 -87 -57 -43 -66 -110
0 0 0 0 0 0 0 0 0 0 0 0 0 0 0 -253 -318 -370 -406 -428 -357 -426 -402 -406 -433 -474 -454 -438 -425 -427 -373 -366 -355 -332 -316 -287 -280 -320 -214 -139 -126 -139 -152 -138 -113 -88 -54 -51 -76
Wind_Speed
18 17 15 16 12 12 11 14 18 17 14 21 27 25 25 19 23 19 29 30 29 28 27 29 26 25 24 25 26 26 26 25 26 28 28 28 27 28 27 26 25 24 23 23 22 22 23 21 21
18 20 18 15 15 3 19 10 20 6 12 17 17 10 16 21 21 21 29 31 30 27 29 28 26 26 24 26 21 23 26 25 28 29 28 28 27 26 26 26 25 24 24 23 23 21 18 19 17
17 19 14 14 20 15 18 11 12 15 18 26 20 12 18 19 19 27 29 31 29 28 28 29 26 26 24 27 27 28 26 28 29 29 28 27 26 26 26 25 24 24 24 23 22 20 19 21 16
12 12 12 12 19 13 10 17 15 21 20 25 21 9 16 18 23 31 30 30 30 28 28 28 26 26 27 27 27 28 28 28 29 28 28 28 28 27 27 26 25 25 24 24 22 21 22 13 19
11 16 16 17 12 12 8 18 17 23 23 20 21 12 8 22 13 29 30 30 30 28 27 28 25 26 27 26 27 27 29 28 28 27 28 28 28 28 27 27 26 26 25 25 24 25 25 17 19
12 15 15 14 12 11 13 19 15 11 16 20 10 8 14 24 30 31 29 30 28 27 26 28 25 27 26 26 27 28 29 29 28 27 29 28 27 27 27 26 26 26 27 27 27 27 24 18 20
14 12 14 11 15 10 14 18 18 16 19 19 14 9 13 27 33 28 28 27 26 24 26 25 26 28 26 27 29 29 29 26 22 22 24 24 24 25 26 25 26 27 27 28 29 28 23 18 18
12 11 14 12 8 9 17 20 16 20 17 10 10 11 20 30 35 27 28 27 27 25 25 25 29 30 29 29 29 29 28 27 24 25 26 25 25 24 23 24 25 27 27 26 27 27 25 20 18
12 13 14 11 7 12 24 24 18 17 8 7 7 11 23 33 34 32 29 29 28 27 26 28 31 31 30 27 28 28 27 27 27 26 24 23 20 20 21 21 21 22 25 24 25 23 23 23 24
11 15 13 9 14 7 13 25 13 7 15 9 6 12 28 32 36 37 34 32 31 30 30 28 31 32 30 26 26 26 26 25 26 25 25 24 22 20 21 18 18 17 22 22 22 21 21 21 23
15 12 8 13 11 5 12 7 9 11 20 16 17 23 29 33 34 37 35 33 32 31 32 32 30 32 31 27 27 26 26 26 25 25 24 22 22 20 18 19 16 14 15 18 19 20 20 21 22
17 19 19 17 25 16 16 10 8 14 12 16 21 26 31 33 35 36 36 34 32 32 33 33 32 34 31 28 28 28 27 26 26 24 23 23 22 20 19 20 17 16 15 14 17 18 18 20 21
25 21 21 25 26 24 22 22 3 10 10 14 21 29 33 33 33 38 35 34 33 33 34 34 35 35 32 30 29 27 28 27 26 25 24 23 22 21 20 19 18 18 15 15 16 15 15 16 19
15 31 30 26 27 25 24 13 5 7 8 15 23 31 33 32 31 35 37 35 35 34 35 35 36 35 33 32 31 29 28 27 26 24 24 22 21 20 19 18 18 18 18 17 16 15 15 15 18
28 27 25 27 24 23 9 5 12 9 12 17 25 32 32 32 31 32 36 36 36 36 35 37 37 36 35 33 32 30 28 27 26 24 23 22 21 20 19 18 18 19 20 19 11 14 16 11 12
18 19 24 21 19 16 2 11 14 9 12 15 22 28 29 31 31 33 34 34 34 37 38 38 38 37 36 35 33 31 29 27 26 24 23 22 20 20 19 19 19 20 20 14 10 9 14 12 14
17 17 17 24 20 16 10 19 3 6 5 12 17 24 26 28 31 33 33 36 33 35 38 39 39 38 37 35 33 32 29 27 26 25 24 22 20 19 19 19 19 19 19 18 17 15 16 19 18
19 17 19 21 20 14 20 24 1 5 6 12 13 19 24 26 32 32 30 33 36 35 36 40 41 39 37 36 34 31 29 27 26 25 25 23 21 20 20 19 20 19 19 17 15 15 17 19 22
25 27 30 28 22 21 23 25 8 5 4 7 11 16 21 24 27 32 31 28 37 38 37 36 41 41 38 38 36 33 31 29 26 26 25 24 22 21 21 20 20 20 19 18 19 18 16 18 21
34 31 30 32 24 25 28 29 19 9 11 11 12 12 19 18 24 30 33 31 34 37 41 38 40 43 41 38 36 32 32 30 27 26 26 25 23 22 22 20 20 20 19 19 19 18 18 18 20
39 38 33 29 26 31 29 35 27 23 17 13 10 11 12 23 24 28 31 35 37 39 38 39 40 32 42 38 28 27 28 27 29 27 26 25 24 23 22 21 20 20 19 19 19 19 20 21 20
38 43 42 35 29 32 29 38 32 24 14 17 13 15 13 20 23 30 32 32 39 45 44 44 40 30 31 36 36 37 36 33 32 30 28 26 24 23 23 22 20 20 19 19 19 19 20 20 21
38 34 40 41 36 35 35 35 36 24 17 20 20 17 16 19 27 28 32 35 32 43 47 47 44 35 27 43 40 35 36 34 33 32 30 29 26 24 23 22 21 20 20 19 18 18 20 20 21
31 25 32 34 36 52 41 38 41 33 23 24 15 16 18 17 34 33 32 31 32 38 46 47 48 44 36 34 34 33 37 36 35 34 33 32 29 26 24 24 22 21 20 20 18 19 19 20 20
31 33 34 39 44 54 34 39 44 42 38 29 24 19 22 19 27 35 30 32 34 35 45 47 42 44 38 33 34 34 35 35 35 33 32 32 31 28 26 25 24 21 20 20 19 19 20 20 20
37 36 36 42 42 49 34 45 37 50 39 41 39 15 28 25 18 25 37 35 35 37 41 44 43 46 41 34 34 33 34 30 34 35 34 34 32 29 25 25 24 22 19 19 18 19 20 20 20
38 45 36 36 31 41 43 40 36 37 46 45 41 24 18 19 18 26 40 39 40 35 37 40 40 45 44 42 22 25 32 32 32 36 35 34 32 30 27 24 23 22 19 18 17 18 19 19 19
42 32 41 42 47 47 39 41 41 38 39 43 45 35 27 14 17 19 22 39 38 39 31 28 41 43 43 28 34 38 30 38 36 38 35 34 32 28 25 23 23 22 19 19 18 17 17 17 18
44 45 40 41 46 46 48 43 31 35 41 49 46 40 25 13 14 17 20 40 38 38 31 23 28 37 38 21 23 29 30 31 31 41 38 34 31 27 23 20 17 17 17 16 17 17 16 17 19
39 39 44 47 48 50 44 43 22 36 37 39 49 48 44 16 15 14 30 23 28 31 32 26 21 26 36 30 20 20 29 26 24 46 41 37 34 25 20 14 14 13 12 13 15 17 15 17 20
Wind_Direction
98 87 78 98 63 334 32 299 224 219 229 194 120 144 135 183 126 143 138 126 118 115 112 114 102 94 89 90 89 89 88 87 92 102 106 109 113 110 109 105 100 91 76 69 63 62 67 57 59
100 100 128 121 125 147 184 286 223 159 229 97 90 22 169 155 172 101 120 126 121 115 117 114 106 99 90 95 78 81 89 87 98 112 103 107 104 97 103 103 99 88 79 73 68 55 44 50 43
97 121 180 12 261 169 240 284 243 220 201 128 141 241 193 175 113 116 130 123 121 117 116 116 107 101 94 103 99 99 93 102 107 109 101 98 96 98 101 107 109 92 79 75 67 54 56 64 43
56 332 61 57 221 353 308 233 239 208 196 175 113 284 210 197 113 131 122 123 122 118 117 115 107 105 105 107 99 105 105 103 118 98 98 102 100 100 104 113 104 96 87 82 78 73 75 186 159
358 313 341 319 359 330 325 236 238 214 201 207 204 251 349 163 87 119 122 124 124 119 117 118 109 110 110 106 102 105 112 114 107 97 99 99 99 107 111 107 104 98 93 86 87 99 137 173 154
335 318 333 355 344 336 268 224 239 246 228 213 273 10 192 123 123 126 123 125 123 119 117 121 111 115 109 107 109 114 124 117 115 95 118 118 128 125 115 113 109 99 97 93 101 123 148 170 159
327 354 331 339 242 310 253 216 221 221 209 220 84 336 92 123 132 123 124 122 122 117 119 117 118 124 114 114 122 132 144 152 166 164 154 148 144 133 125 120 114 105 105 101 106 116 152 166 164
333 354 328 330 334 355 228 215 233 215 216 56 67 56 120 133 135 125 125 124 124 122 122 121 132 156 135 142 151 152 153 156 164 156 147 146 141 141 140 130 120 109 104 110 115 122 140 160 164
301 315 315 58 303 235 177 170 228 221 18 314 66 56 123 132 133 132 129 131 131 130 129 131 145 153 153 174 167 160 160 158 152 150 154 154 162 159 154 143 139 128 109 120 123 136 144 147 140
301 310 300 36 82 15 247 169 84 62 99 319 20 71 126 133 139 142 140 139 139 140 140 135 145 150 170 181 178 173 169 165 157 155 155 152 153 162 153 162 154 150 122 121 133 144 148 153 141
280 300 306 86 68 317 42 73 35 63 136 116 112 118 132 138 142 147 146 144 143 143 147 149 143 154 174 184 183 178 174 168 166 160 162 164 161 166 172 162 177 177 169 144 142 144 149 151 147
272 259 242 230 168 234 202 5 46 105 261 118 127 134 137 143 147 150 151 149 146 147 150 152 151 166 180 185 178 171 175 166 167 168 162 155 158 162 172 159 166 173 186 189 161 161 155 157 156
250 247 248 232 215 230 233 232 42 108 297 77 118 136 143 144 146 156 155 154 150 151 156 155 163 175 183 183 176 181 174 167 170 158 154 148 149 156 161 151 156 166 178 185 186 187 184 174 162
278 246 244 247 230 236 239 277 332 303 59 87 123 140 145 147 147 154 160 158 158 158 159 161 169 179 188 182 173 176 169 169 166 166 158 147 157 159 160 155 161 161 165 167 193 208 204 188 169
244 245 259 250 251 240 97 48 270 88 88 104 130 144 147 151 152 156 161 163 162 168 164 169 173 181 185 182 179 180 175 175 172 169 161 153 143 154 155 150 151 136 117 146 337 219 200 238 216
262 263 253 260 253 269 47 285 258 98 105 110 128 144 151 156 158 162 163 163 163 170 176 175 183 180 183 181 176 182 182 182 181 175 167 161 148 150 151 143 135 132 124 186 250 267 206 218 211
260 255 252 251 254 266 258 256 317 106 104 114 126 141 150 157 164 167 166 171 164 168 176 182 186 181 180 181 180 184 184 185 185 184 177 168 159 151 150 144 150 137 145 166 187 211 204 175 176
247 249 255 250 256 257 256 252 216 151 136 133 134 143 151 158 169 169 167 169 174 171 173 184 191 187 180 188 192 193 194 199 196 186 178 173 164 158 153 145 146 145 154 178 198 208 200 175 141
254 253 248 249 256 259 258 255 251 206 201 157 153 153 157 162 164 173 170 168 177 180 176 174 186 188 179 193 192 196 193 194 200 185 178 167 163 164 164 160 156 147 146 162 170 183 197 192 156
249 250 248 250 258 258 256 253 258 226 199 184 174 171 164 158 162 170 174 172 175 178 185 178 182 191 192 209 209 212 195 196 200 189 179 169 162 163 166 165 156 159 155 148 157 178 184 186 182
246 246 246 251 260 256 257 251 256 258 259 242 225 203 180 170 167 170 174 179 180 182 180 182 181 173 190 201 230 230 222 223 204 200 185 174 167 166 168 172 167 156 149 153 149 155 162 161 174
250 243 244 250 258 253 254 251 251 257 237 195 215 200 205 177 173 176 178 180 185 194 214 195 183 174 175 177 179 187 195 187 194 193 193 180 175 175 178 174 173 168 161 149 145 147 151 149 143
251 251 246 247 254 257 252 252 251 255 235 191 191 202 208 184 179 178 180 183 181 196 217 213 219 181 177 191 189 185 191 197 209 200 194 194 187 181 181 178 175 176 166 154 145 143 152 153 144
250 258 247 249 251 247 248 250 247 248 247 194 212 227 234 224 185 186 184 181 182 187 215 219 202 193 184 182 184 184 192 196 203 206 196 200 197 189 185 184 179 175 174 164 155 154 148 149 146
242 240 247 244 243 244 251 250 245 238 243 249 185 199 192 202 186 188 182 182 183 183 198 200 189 193 186 184 186 187 189 192 195 196 195 197 199 197 189 186 184 176 173 172 161 161 159 153 155
238 236 239 243 245 246 251 248 251 218 240 232 238 230 246 244 225 192 192 188 186 186 189 192 191 196 189 185 186 187 189 188 194 199 201 201 198 193 186 185 184 181 170 168 162 164 169 166 169
241 237 239 250 258 251 249 253 257 242 234 234 236 254 246 236 221 191 196 195 194 187 187 189 189 194 193 192 195 189 188 189 191 200 202 202 198 193 190 185 184 181 175 170 166 165 166 163 165
241 240 235 240 243 245 250 248 248 243 240 233 234 247 252 230 233 229 204 194 192 193 186 187 192 194 194 204 239 238 192 196 195 201 198 199 197 189 185 186 186 186 180 179 174 173 170 169 173
236 238 240 242 244 245 247 250 250 244 239 232 231 239 252 221 209 212 207 194 192 192 187 193 189 190 192 209 232 241 243 245 191 206 202 199 196 189 185 183 179 182 182 181 181 180 177 178 184
241 240 238 239 239 244 248 248 259 244 242 237 228 229 212 200 206 210 190 192 188 188 186 187 201 189 189 189 207 219 243 245 194 221 206 202 200 189 186 185 185 187 186 182 181 184 180 185 189